Location: Heiligenberg
(48.5381°N, 7.3897°E)
Time: 08:07:34
(UTC+00:00)

USA 306 - Visible Passes

Search period start: 06 October 2022 00:00
Search period end: 16 October 2022 00:00
Orbit: 540 x 544 km, 54.0° (Epoch: 02 October)

Date Brightness Start Highest point End Pass type
(mag) Time Alt. Az. Time Alt. Az. Time Alt. Az.
06 Oct 4.2 02:52:39 36° NNE 02:52:39 36° NNE 02:55:35 10° ENE visible
06 Oct 3.7 04:28:08 13° WNW 04:31:33 41° N 04:35:27 10° E visible
07 Oct 4.5 02:44:51 31° NE 02:44:51 31° NE 02:47:27 10° ENE visible
07 Oct 3.7 04:20:20 15° NW 04:23:27 44° NNE 04:27:23 10° E visible
08 Oct 4.8 02:37:03 27° NE 02:37:03 27° NE 02:39:18 10° ENE visible
08 Oct 3.5 04:12:32 18° NW 04:15:18 47° NNE 04:19:17 10° E visible
09 Oct 5.1 02:29:15 23° NE 02:29:15 23° NE 02:31:07 10° ENE visible
09 Oct 3.4 04:04:44 22° NW 04:07:06 52° NNE 04:11:07 10° E visible
10 Oct 5.4 02:21:28 19° ENE 02:21:28 19° ENE 02:22:54 10° ENE visible
10 Oct 3.2 03:56:57 29° NW 03:58:52 59° NNE 04:02:55 10° ESE visible
11 Oct 5.7 02:13:42 16° ENE 02:13:42 16° ENE 02:14:40 10° ENE visible
11 Oct 3.0 03:49:11 39° NW 03:50:34 67° NNE 03:54:38 10° ESE visible
12 Oct 5.9 02:05:59 12° ENE 02:05:59 12° ENE 02:06:23 10° ENE visible
12 Oct 2.8 03:41:28 57° NW 03:42:13 77° NNE 03:46:19 10° ESE visible
13 Oct 2.7 03:33:50 89° NE 03:33:50 89° NE 03:37:55 10° ESE visible
13 Oct 4.3 05:09:35 10° W 05:12:40 21° SW 05:15:46 10° S visible
14 Oct 3.3 03:26:15 53° SE 03:26:15 53° SE 03:29:28 10° SE visible
14 Oct 4.5 05:01:45 11° W 05:04:07 17° SW 05:06:46 10° S visible
15 Oct 4.3 03:18:46 29° SE 03:18:46 29° SE 03:20:55 10° SE visible
15 Oct 4.7 04:54:16 12° WSW 04:55:29 13° SW 04:57:32 10° SSW visible
